Showing default

GLOBALSTAR M094, 39074

Orbit data source: Space-Track

GLOBALSTAR M094, 39074 is a payload satellite owned by Globalstar (US) in LEO that was launched on Wed, 06 Feb 2013 UTC via a SOYUZ-2-1A launch vehicle from the Tyuratam Missile And Space Complex (TTMTR). Payload-class satellites include a variety of spacecraft equipped with specific instruments for various scientific and technological missions. These include communications satellites like Starlink; space stations such as the ISS; scientific satellites like the Hubble; Earth observation satellites from companies like Planet Labs, Umbra, and HawkEye 360; GPS; miniature CubeSats for education and research; and military/defense satellites.

Loading next visibility...
Identifier
39074, 2013-005C
Orbit
LEO
Country
Flag of UnknownUnknown / GLOB
Related business
Manufacturer
Thales Alenia
Mission
Operational Commercial Communications
Bus & Motor
PRISMA?, LS-400 AOCS?
Mass
715 kg wet, ~500 kg dry
Launch date (UTC)
2013-02-06 (13 years ago)
Launch vehicle
SOYUZ-2-1A
Launch site
Tyuratam Missile And Space Complex (TTMTR)
Object type
Payload
Rocket body
Debris
Shape & HBR
Trap Cyl + 2 Pan, 6.0 m
Radar Cross Section
20.931 m², Large (>1 m²)

Expand to show TLE details & history
Last TLE update: 16 hours ago

TLE from 16 hours ago
0 GLOBALSTAR M094
1 39074U 13005C   25348.95397106 -.00000090  00000-0  74217-4 0  9999
2 39074  51.9976 351.7353 0000193  17.6078 342.4796 12.62265366595206
Epoch: 2025-12-14T22:53Z
TLE epoch observation values (Epoch: 2025-12-14T22:53:43.099Z)
Latitude
0.00003°
Longitude
-75.55374°
Altitude
1,414.146 km
Speed
7.154 km/s
True Right ascension
23h 26m 56s
True Declination
0° 00' 00"
Sunlit
Object was in daylight at epoch
Visualization orbit readout
Latitude
Unknown
Longitude
Unknown
Altitude
Unknown
Speed
Unknown
Apparent Right ascension
Unknown
Apparent Declination
Unknown
Sunlit
N/A
Visualization observer readout
Local Sidereal Time
13:22:51
Azimuth
Unknown
Elevation
Unknown
Doppler factor
Unknown
Orbital elements
Apogee altitude
1,414.151 km
Perigee altitude
1,413.85 km
Semi-major axis
7,792.138 km
Eccentricity
0.00002
Inclination
51.9976°
RAAN
351.7353°
Arg. of periapsis
17.6078°
True anomaly
342.47893°
Mean anomaly
342.4796°
Eccentric anomaly
342.47927°
Mean motion
3.15543 °/min
Orbital period
114.09 mins
BSTAR
0.000074217
Loading maneuver chart data...
Computing Atmospheric mass density...
Loading historical data...
Loading historical data...
Loading historical data...
Loading historical data...
Loading historical data...
Loading historical data...
Loading historical data...

Documentation

Showing up to 5 results
|